SL-4 R/B (52714 NORAD) Tracking and Keplerian Element Data

This shows tracking and keplerian element data for the satellite.

Feedback or suggestion? Click here.




ElementValue
Catalog52714
NameSL-4 R/B
Epoch Orbit426
Epoch Day167.01694117
Epoch Year2022
RAAN82.8981
Inclination97.702
Eccentricity0.0148683
Argument of Perigee336.6461
Mean Anonmoly152.4622
Mean Motion15.41570438
Decay Rate0.00028166
L11 52714U 22054B 22167.01694117 .00028166 00000+0 44840-3 0 9994
L22 52714 97.7020 82.8981 0148683 336.6461 152.4622 15.41570438 4263

Live tracking and technical data element details for SL-4 R/B (NORAD 52714). SL-4 R/B can be tracked NOW for your location showing map with azimuth and elevation plus other details from your city location.

Track the satellite on the map from your city or location and see movement details for azimuth, elevation, latitude, longitude, range, height, and movement on the map or in text.







IsCatalogInMostPopularTable: catalog: 52714, numindb: 14
Update: records affected: 1



GetName: 52714 SL-4 R/B

Hit Count: updated at: Thu, 06 Oct 2022 03:55:15 GMT